Location: Brno
(49.2000°N, 16.6330°E)
Time: 09:45:54
(UTC+02:00)

RESURS DK-1 - Visible Passes

Search period start: 28 May 2018 00:00
Search period end: 07 June 2018 00:00
Orbit: 556 x 563 km, 69.9° (Epoch: 28 May)

Date Brightness Start Highest point End Pass type
(mag) Time Alt. Az. Time Alt. Az. Time Alt. Az.
31 May 4.8 04:12:41 10° SSE 04:15:33 18° ESE 04:18:25 10° ENE visible
01 Jun 4.4 04:10:33 10° SSE 04:13:52 24° ESE 04:17:13 10° NE visible
02 Jun 4.0 04:08:35 10° S 04:12:14 30° ESE 04:15:54 10° NE visible
03 Jun 3.5 04:06:43 10° S 04:10:36 40° ESE 04:14:31 10° NE visible
04 Jun 3.0 04:04:58 10° S 04:09:00 52° ESE 04:13:04 10° NE visible
05 Jun 2.6 04:03:18 10° SSW 04:07:25 70° ESE 04:11:35 10° NE visible
06 Jun 5.0 02:27:25 10° ESE 02:28:31 11° E 02:29:37 10° E visible
06 Jun 2.4 04:01:42 10° SSW 04:05:51 89° W 04:10:03 10° NNE visible
